Flag for Canada Weather past 2 weeks in Waterloo, Ontario, Canada

Now
37 °F

Clear.


Feels Like: 32 °F
Forecast: 34 / 53 °F
Wind: 7 mph from North

Location: Waterloo Well

Current Time: Oct 22, 2014 at 6:23:21 AM

Latest Report: Oct 22, 2014 at 6:00 AM


Visibility: 9 mi

Pressure: 30.24 "Hg

Humidity: 81%

Dew point: 32 °F

Location of WaterlooLocation

Historic Weather in Waterloo — Graph

°F

Waterloo temperature yesterday

Maximum temperature yesterday: 50 °F (at 12:00 AM)
Minimum temperature yesterday: 41 °F (at 10:00 PM)
Average temperature yesterday: 46 °F

Past Weeks' High & Low Weather Summary

 TemperatureHumidityPressure
High72 °F (Oct 14, 11:00 AM)100% (Oct 7, 7:00 AM)30.30 "Hg (Oct 7, 7:00 AM)
Low27 °F (Oct 12, 5:01 AM)44% (Oct 12, 4:00 PM)29.49 "Hg (Oct 17, 3:00 PM)
Average49 °F84%29.90 "Hg
* Reported Oct 7 5:00 AM — Oct 22 5:00 AM, Waterloo, Weather by CustomWeather, © 2014

Note: Actual official high and low records may vary slightly from our data, if they occured in-between our weather recording intervals... More about our weather records

Advertising

Waterloo weather history for previous 24 hours

 ConditionsComfort  
Time TempWeatherWind HumidityBarometerVisibility
5:00 AM
Oct 22
37 °FPassing clouds.10 mph87%30.23 "Hg9 mi
4:56 AM37 °FPassing clouds.8 mph87%30.23 "Hg9 mi
4:00 AM39 °FOvercast.9 mph81%30.21 "Hg9 mi
3:00 AM41 °FOvercast.9 mph81%30.20 "Hg9 mi
2:00 AM41 °FOvercast.7 mph81%30.19 "Hg9 mi
1:00 AM41 °FOvercast.7 mph87%30.19 "Hg9 mi
12:00 AM41 °FMostly cloudy.9 mph87%30.18 "Hg9 mi
11:00 PM
Oct 21
41 °FOvercast.13 mph93%30.17 "Hg9 mi
10:00 PM41 °FLight rain. Overcast.13 mph93%30.16 "Hg8 mi
9:00 PM43 °FLight rain. Overcast.12 mph87%30.13 "Hg9 mi
8:49 PM43 °FLight rain. Overcast.14 mph87%30.12 "Hg9 mi
8:00 PM43 °FLow clouds.12 mph87%30.10 "Hg9 mi
7:00 PM43 °FLow clouds.9 mph87%30.08 "Hg9 mi
6:58 PM43 °FLow clouds.12 mph87%30.08 "Hg9 mi
6:00 PM43 °FOvercast.12 mph87%30.05 "Hg9 mi
5:00 PM45 °FOvercast.13 mph87%30.02 "Hg9 mi
4:00 PM45 °FOvercast.10 mph87%29.99 "Hg9 mi
3:00 PM46 °FOvercast.10 mph82%29.96 "Hg9 mi
2:00 PM46 °FOvercast.13 mph87%29.94 "Hg9 mi
1:48 PM46 °FOvercast.16 mph87%29.94 "Hg9 mi
1:00 PM46 °FOvercast.12 mph87%29.93 "Hg9 mi
12:00 PM46 °FFog.10 mph93%29.91 "Hg6 mi
11:59 AM46 °FFog.12 mph93%29.91 "Hg6 mi
11:00 AM46 °FLight rain. Fog.9 mph93%29.89 "Hg3 mi
10:51 AM46 °FRain. Fog.8 mph93%29.89 "Hg5 mi
10:00 AM46 °FRain. Mostly cloudy.8 mph93%29.88 "Hg8 mi
9:00 AM46 °FLight rain. Mostly cloudy.9 mph93%29.87 "Hg9 mi
8:00 AM46 °FRain. Fog.8 mph93%29.84 "Hg6 mi
7:00 AM46 °FLight rain. Overcast.10 mph93%29.82 "Hg9 mi
6:00 AM46 °FLight rain. Overcast.9 mph93%29.81 "Hg7 mi
Weather by CustomWeather, © 2014

See weather overviewHow to use our weather pages